NSS-10

Last updated on Mon Sep 15 2025 00:02:46 GMT+0000 (Coordinated Universal Time)

1 28526U 05003A 25257.15808539 -.00000263 00000+0 00000+0 0 9991 2 28526 5.7579 73.7816 0002829 107.7455 191.3372 1.00271419 50387
UTC large
Height (km)
Speed (km/s)
/
Latitude / Longitude
Inclination (degrees)
Orbital Period (minutes)
Azimuth
Elevation
Range (km)
Doppler Factor

Next 0 passes for location: London (51.5072 / 0.1276)

Sorry there are no passes over London.